Hourly Data Report for October 20, 2004

TORONTO CITY
ONTARIO

43°40'00.000" N
79°24'00.000" W
112.50 m
6158355
71508
XTO

Download Data

Hourly Data (October 2004)
Hourly Data Report for October 20, 2004
TIME
LST
Temp Definition
°C
Dew Point Definition
°C
Rel Hum Definition
%
Precip. Amount Definition
mm

Wind Dir Definition
10's deg

Wind Spd Definition
km/h
Visibility Definition
km
Stn Press Definition
kPa
Hmdx Definition


Wind Chill Definition


Weather Definition


00:00 8.6 4.8 77   LegendMM LegendMM LegendMM 100.44     LegendNANA
01:00 8.2 5.4 82   LegendMM LegendMM LegendMM 100.42     LegendNANA
02:00 8.0 5.9 87   LegendMM LegendMM LegendMM 100.42     LegendNANA
03:00 7.7 6.5 92   LegendMM LegendMM LegendMM 100.37     LegendNANA
04:00 7.8 6.6 92   LegendMM LegendMM LegendMM 100.37     LegendNANA
05:00 7.7 6.6 93   LegendMM LegendMM LegendMM 100.37     LegendNANA
06:00 7.6 6.9 95   LegendMM LegendMM LegendMM 100.40     LegendNANA
07:00 7.6 7.1 97   LegendMM LegendMM LegendMM 100.43     LegendNANA
08:00 7.8 7.4 97   LegendMM LegendMM LegendMM 100.46     LegendNANA
09:00 7.9 7.5 97   LegendMM LegendMM LegendMM 100.47     LegendNANA
10:00 7.9 7.6 98   LegendMM LegendMM LegendMM 100.46     LegendNANA
11:00 7.9 7.6 98   LegendMM LegendMM LegendMM 100.43     LegendNANA
12:00 8.1 7.8 98   LegendMM LegendMM LegendMM 100.38     LegendNANA
13:00 8.3 8.0 98   LegendMM LegendMM LegendMM 100.40     LegendNANA
14:00 8.4 8.0 97   LegendMM LegendMM LegendMM 100.38     LegendNANA
15:00 8.6 8.1 97   LegendMM LegendMM LegendMM 100.35     LegendNANA
16:00 8.5 8.0 97   LegendMM LegendMM LegendMM 100.34     LegendNANA
17:00 8.4 7.9 97   LegendMM LegendMM LegendMM 100.38     LegendNANA
18:00 8.4 7.8 96   LegendMM LegendMM LegendMM 100.40     LegendNANA
19:00 8.5 7.8 95   LegendMM LegendMM LegendMM 100.44     LegendNANA
20:00 8.3 7.8 97   LegendMM LegendMM LegendMM 100.45     LegendNANA
21:00 8.2 7.7 97   LegendMM LegendMM LegendMM 100.46     LegendNANA
22:00 8.0 7.4 96   LegendMM LegendMM LegendMM 100.43     LegendNANA
23:00 8.0 7.5 97   LegendMM LegendMM LegendMM 100.46     LegendNANA

Notes on Data Quality.

Legend

  • E = Estimated
  • M = Missing
  • NA = Not Available*
  • [empty] = Indicates an unobserved value
Date modified: